Szczecin-Goleniow Solidarnosc Airport Goleniow PL
ICAO: EPSC
IATA: SZZ
Category: Medium
Scheduled Services: Yes

Elevation: 154 ft
TransAlt. 6500 ft.

Airport Communications:
SZCZECIN TWR:118.5

EPSC Zoom In..

If you have problems with the map follow the link
https://www.worldairports.se/pages/airport.php?
ICAO=EPSC

Runways:

(A) RW 13 length 8202 ft width 197 ft
---- / hdg 128

(B) RW 31 length 8202 ft width 197 ft
ILS 110.50 / hdg 308

Location; EPSC
Day. 05 / Time. 14.30 Zulu
* QNH: 1016
* Temperature: 03° c. 37.4°f.
* Wind from: 170° Speed 07 kn.
Dewpoint: -01° c.
Visibility: 10 km or more,
No clouds below 1,500 m.
No cumulonimbus, and no significant weather
fenomena in the aerodrome or its vicinity.

EPSC 051430Z 17007KT CAVOK 03/M01 Q1016


Wind From 170°
Speed 07 kn.

 
 
jpsmedia worldairports.se 2019   terms of use